Beaver, WV

4:21 PM EST on February 27, 2017 (GMT -0500)
Raleigh County Memorial

Weather History for KBKW - May, 2012

Change the Weather History Date:

Saturday, May 19, 2012

  Actual Average Record
Temperature  
Mean Temperature 65 °F 60 °F  
Max Temperature 76 °F 71 °F 89 °F (1996)
Min Temperature 54 °F 50 °F 29 °F (1916)
Degree Days  
Heating Degree Days 0 6  
Month to date heating degree days 57 139  
Since 1 July heating degree days 4162 5248  
Cooling Degree Days 0 1  
Month to date cooling degree days 29 13  
Year to date cooling degree days 59 23  
Growing Degree Days 14 (Base 50)    
Moisture  
Dew Point 50 °F    
Average Humidity 60    
Maximum Humidity 78    
Minimum Humidity 41    
Precipitation  
Precipitation T in 0.15 in 1.05 in (1986)
Month to date precipitation 2.91 2.80  
Year to date precipitation 17.84 15.30  
Snow  
Snow 0.00 in - - ()
Month to date snowfall 0.0  
Since 1 September snowfall 36.0  
Snow Depth 0.00 in    
Sea Level Pressure  
Sea Level Pressure 30.12 in    
Wind  
Wind Speed 4 mph (ESE)    
Max Wind Speed 10 mph    
Max Gust Speed 14 mph    
Visibility 10 miles    
Events Rain    
T = Trace of Precipitation, MM = Missing Value Source: NWS Daily Summary

Daily Weather History Graph

Daily Weather History Graph

Search for Another Location

Airport or City:

Trip Planner

Search our weather history database for the weather conditions in past years. The results will help you decide how hot, cold, wet, or windy it might be!

Date:

Astronomy

May. 19, 2012 Rise Set
Actual Time 6:11 AM EDT 8:31 PM EDT
Civil Twilight 5:41 AM EDT 9:01 PM EDT
Nautical Twilight 5:04 AM EDT 9:37 PM EDT
Astronomical Twilight 4:24 AM EDT 10:18 PM EDT
Moon 5:12 AM EDT (5/19) 7:35 PM EDT (5/19)
Length of Visible Light 15h 19m
Length of Day
14h 20m
Waning Crescent, 2% of the Moon is Illuminated
May 19
Waning Crescent
May 20
New
May 28
First Quarter
Jun 4
Full
Jun 11
Last Quarter

Hourly Weather History & Observations

Time (EDT) Temp. Dew Point Humidity Pressure Visibility Wind Dir Wind Speed Gust Speed Precip Events Conditions
12:51 AM 60.1 °F 51.1 °F 72% 30.10 in 10.0 mi SE 5.8 mph - N/A   Clear
1:51 AM 59.0 °F 50.0 °F 72% 30.09 in 10.0 mi SE 6.9 mph - N/A   Clear
2:51 AM 57.9 °F 46.9 °F 67% 30.08 in 10.0 mi Variable 4.6 mph - N/A   Clear
3:51 AM 55.9 °F 45.0 °F 67% 30.07 in 10.0 mi Variable 3.5 mph - N/A   Clear
4:51 AM 55.0 °F 44.1 °F 67% 30.09 in 10.0 mi SSE 3.5 mph - N/A   Clear
5:51 AM 55.0 °F 42.1 °F 62% 30.10 in 10.0 mi SE 3.5 mph - N/A   Clear
6:51 AM 54.0 °F 41.0 °F 62% 30.12 in 10.0 mi Calm Calm - N/A   Clear
7:51 AM 57.0 °F 43.0 °F 59% 30.14 in 10.0 mi SSE 3.5 mph - N/A   Clear
8:51 AM 61.0 °F 44.1 °F 54% 30.15 in 10.0 mi South 6.9 mph - N/A   Clear
9:51 AM 64.0 °F 46.0 °F 52% 30.16 in 10.0 mi SSE 5.8 mph - N/A   Clear
10:51 AM 66.9 °F 48.0 °F 51% 30.15 in 10.0 mi ENE 3.5 mph - N/A   Clear
11:51 AM 71.1 °F 51.1 °F 49% 30.14 in 10.0 mi Calm Calm - N/A   Clear
12:51 PM 72.0 °F 53.1 °F 51% 30.14 in 10.0 mi NE 8.1 mph - N/A   Scattered Clouds
1:51 PM 73.0 °F 51.1 °F 46% 30.13 in 10.0 mi Calm Calm - N/A   Clear
2:51 PM 75.0 °F 51.1 °F 43% 30.12 in 10.0 mi Calm Calm - N/A   Clear
3:51 PM 75.9 °F 52.0 °F 43% 30.10 in 10.0 mi West 4.6 mph - N/A   Clear
4:51 PM 75.9 °F 50.0 °F 40% 30.09 in 10.0 mi NNW 6.9 mph - N/A   Clear
5:51 PM 75.0 °F 53.1 °F 46% 30.09 in 10.0 mi NE 4.6 mph - N/A   Clear
6:51 PM 73.0 °F 54.0 °F 51% 30.10 in 10.0 mi NNE 5.8 mph - N/A   Partly Cloudy
7:51 PM 71.1 °F 54.0 °F 55% 30.11 in 10.0 mi North 3.5 mph - N/A   Overcast
8:51 PM 68.0 °F 55.9 °F 65% 30.12 in 10.0 mi ESE 3.5 mph - 0.00 in Rain Light Rain
9:51 PM 64.9 °F 57.9 °F 78% 30.12 in 10.0 mi ESE 4.6 mph - 0.00 in   Overcast
10:51 PM 64.0 °F 55.9 °F 75% 30.14 in 10.0 mi East 3.5 mph - N/A   Clear
11:51 PM 63.0 °F 55.0 °F 75% 30.14 in 10.0 mi Calm Calm - N/A   Clear